| time (UTC) | temp F | wind direction | speed knots | gust knots | rain 1hr in | rain 24hr in | rain mn in | humidity % | barometer mb |
| 20260505214102 | 67 | 0.0 | 0.0 | 0.00 | 0.00 | 0.00 | 41 | 1004.9 | |
| 20260505213045 | 67 | 0.0 | 0.0 | 0.00 | 0.00 | 0.00 | 40 | 1004.9 | |
| 20260505212057 | 67 | 0.0 | 0.0 | 0.00 | 0.00 | 0.00 | 40 | 1004.9 | |
| 20260505211023 | 67 | 0.0 | 0.0 | 0.00 | 0.00 | 0.00 | 39 | 1004.9 | |
| 20260505210045 | 68 | 315 | 0.0 | 0.9 | 0.00 | 0.00 | 0.00 | 38 | 1004.9 |
| 20260505205045 | 68 | 315 | 0.0 | 1.7 | 0.00 | 0.00 | 0.00 | 37 | 1004.9 |
| 20260505204031 | 68 | 0.0 | 0.0 | 0.00 | 0.00 | 0.00 | 35 | 1004.9 | |
| 20260505203017 | 69 | 23 | 0.0 | 0.9 | 0.00 | 0.00 | 0.00 | 35 | 1004.9 |
| 20260505202028 | 69 | 349 | 0.9 | 0.9 | 0.00 | 0.00 | 0.00 | 33 | 1004.9 |
| 20260505201037 | 70 | 330 | 0.9 | 0.9 | 0.00 | 0.00 | 0.00 | 31 | 1004.9 |
| 20260505200024 | 70 | 333 | 0.9 | 1.7 | 0.00 | 0.00 | 0.00 | 26 | 1004.9 |
| 20260505195102 | 71 | 45 | 1.7 | 2.6 | 0.00 | 0.00 | 0.00 | 21 | 1004.4 |
| 20260505194044 | 71 | 339 | 0.9 | 0.9 | 0.00 | 0.00 | 0.00 | 12 | 1003.9 |
| 20260505193018 | 72 | 0.0 | 0.0 | 0.00 | 0.00 | 0.00 | 11 | 1003.9 | |
| 20260505192045 | 72 | 0.0 | 0.0 | 0.00 | 0.00 | 0.00 | 11 | 1003.9 | |
| 20260505191107 | 72 | 0.0 | 0.0 | 0.00 | 0.00 | 0.00 | 11 | 1003.9 | |
| 20260505190015 | 73 | 0.0 | 0.0 | 0.00 | 0.00 | 0.00 | 11 | 1003.9 | |
| 20260505185031 | 73 | 0.0 | 0.0 | 0.00 | 0.00 | 0.00 | 16 | 1003.9 | |
| 20260505184045 | 74 | 0.0 | 0.0 | 0.00 | 0.00 | 0.00 | 17 | 1003.9 | |
| 20260505183045 | 74 | 0.0 | 0.0 | 0.00 | 0.00 | 0.00 | 14 | 1003.9 | |
| 20260505182032 | 74 | 0.0 | 0.0 | 0.00 | 0.00 | 0.00 | 13 | 1003.9 | |
| 20260505181022 | 74 | 0.0 | 0.0 | 0.00 | 0.00 | 0.00 | 11 | 1003.9 | |
| 20260505180058 | 74 | 0.0 | 0.0 | 0.00 | 0.00 | 0.00 | 12 | 1003.9 | |
| 20260505175059 | 75 | 0.0 | 0.0 | 0.00 | 0.00 | 0.00 | 11 | 1003.9 | |
| 20260505174021 | 75 | 0.0 | 0.0 | 0.00 | 0.00 | 0.00 | 11 | 1003.9 | |
| 20260505173017 | 75 | 0.0 | 0.0 | 0.00 | 0.00 | 0.00 | 10 | 1003.9 | |
| 20260505172101 | 75 | 0.0 | 0.0 | 0.00 | 0.00 | 0.00 | 10 | 1003.9 | |
| 20260505171029 | 76 | 315 | 0.0 | 0.9 | 0.00 | 0.00 | 0.00 | 8 | 1003.9 |
| 20260505170045 | 76 | 264 | 0.9 | 0.9 | 0.00 | 0.00 | 0.00 | 8 | 1004.9 |
| 20260505165031 | 76 | 9 | 0.9 | 0.9 | 0.00 | 0.00 | 0.00 | 9 | 1004.9 |
| 20260505164021 | 76 | 248 | 0.9 | 1.7 | 0.00 | 0.00 | 0.00 | 7 | 1004.9 |
| 20260505163036 | 77 | 220 | 0.9 | 1.7 | 0.00 | 0.00 | 0.00 | 4 | 1004.9 |
| 20260505162059 | 77 | 225 | 0.0 | 0.9 | 0.00 | 0.00 | 0.00 | 7 | 1004.9 |
| 20260505161047 | 77 | 203 | 0.0 | 0.9 | 0.00 | 0.00 | 0.00 | 5 | 1004.9 |
| 20260505153043 | 79 | 273 | 0.9 | 1.7 | 0.00 | 0.00 | 0.00 | 12 | 1004.9 |
| 20260505152028 | 79 | 232 | 1.7 | 2.6 | 0.00 | 0.00 | 0.00 | 14 | 1004.9 |
| 20260505151018 | 79 | 227 | 1.7 | 2.6 | 0.00 | 0.00 | 0.00 | 17 | 1004.9 |
| 20260505125015 | 81 | 203 | 0.0 | 0.9 | 0.00 | 0.00 | 0.00 | 23 | 1005.9 |
| 20260505124043 | 81 | 278 | 0.9 | 1.7 | 0.00 | 0.00 | 0.00 | 24 | 1005.9 |
| 20260505123026 | 81 | 212 | 0.9 | 1.7 | 0.00 | 0.00 | 0.00 | 24 | 1005.9 |
| 20260505122045 | 81 | 210 | 1.7 | 2.6 | 0.00 | 0.00 | 0.00 | 25 | 1005.9 |
| 20260505121045 | 80 | 229 | 1.7 | 3.5 | 0.00 | 0.00 | 0.00 | 26 | 1005.9 |
| 20260505120024 | 79 | 349 | 0.9 | 2.6 | 0.00 | 0.00 | 0.00 | 27 | 1007.0 |
| 20260505115033 | 79 | 176 | 0.9 | 1.7 | 0.00 | 0.00 | 0.00 | 29 | 1006.6 |
| 20260505114033 | 79 | 186 | 1.7 | 2.6 | 0.00 | 0.00 | 0.00 | 29 | 1005.9 |
| 20260505113047 | 79 | 213 | 1.7 | 1.7 | 0.00 | 0.00 | 0.00 | 30 | 1007.0 |
| 20260505112042 | 79 | 232 | 1.7 | 3.5 | 0.00 | 0.00 | 0.00 | 30 | 1007.0 |
| 20260505111025 | 78 | 171 | 0.9 | 1.7 | 0.00 | 0.00 | 0.00 | 31 | 1007.0 |
| 20260505102026 | 77 | 137 | 1.7 | 2.6 | 0.00 | 0.00 | 0.00 | 33 | 1007.7 |
| 20260505101021 | 77 | 326 | 0.9 | 0.9 | 0.00 | 0.00 | 0.00 | 34 | 1008.0 |
| 20260505100045 | 76 | 225 | 0.9 | 1.7 | 0.00 | 0.00 | 0.00 | 34 | 1008.0 |
| 20260505095045 | 76 | 219 | 0.9 | 1.7 | 0.00 | 0.00 | 0.00 | 34 | 1008.0 |
| 20260505094019 | 75 | 10 | 0.9 | 1.7 | 0.00 | 0.00 | 0.00 | 34 | 1008.0 |
| 20260505093105 | 75 | 23 | 0.0 | 0.9 | 0.00 | 0.00 | 0.00 | 35 | 1008.0 |
| 20260505092034 | 75 | 203 | 0.9 | 0.9 | 0.00 | 0.00 | 0.00 | 36 | 1008.0 |
| 20260505091037 | 74 | 225 | 0.0 | 0.9 | 0.00 | 0.00 | 0.00 | 36 | 1008.0 |
| 20260505085042 | 74 | 23 | 0.9 | 0.9 | 0.00 | 0.00 | 0.00 | 37 | 1008.4 |
| 20260505084020 | 73 | 348 | 0.0 | 1.7 | 0.00 | 0.00 | 0.00 | 38 | 1009.0 |
| 20260505083050 | 72 | 248 | 0.9 | 0.9 | 0.00 | 0.00 | 0.00 | 38 | 1009.0 |
| 20260505082017 | 72 | 296 | 0.0 | 0.9 | 0.00 | 0.00 | 0.00 | 39 | 1009.0 |
| 20260505081019 | 71 | 304 | 0.0 | 0.9 | 0.00 | 0.00 | 0.00 | 40 | 1009.0 |
| 20260505080045 | 71 | 292 | 0.9 | 0.9 | 0.00 | 0.00 | 0.00 | 40 | 1009.0 |
| 20260505075015 | 70 | 0.0 | 0.0 | 0.00 | 0.00 | 0.00 | 41 | 1009.0 | |
| 20260505074104 | 70 | 248 | 0.9 | 0.9 | 0.00 | 0.00 | 0.00 | 42 | 1009.0 |
| 20260505073045 | 69 | 248 | 0.0 | 0.9 | 0.00 | 0.00 | 0.00 | 42 | 1009.0 |
| 20260505072041 | 69 | 338 | 0.0 | 0.9 | 0.00 | 0.00 | 0.00 | 42 | 1009.0 |
| 20260505071024 | 69 | 0.0 | 0.0 | 0.00 | 0.00 | 0.00 | 43 | 1009.0 | |
| 20260505070035 | 68 | 0.0 | 0.0 | 0.00 | 0.00 | 0.00 | 43 | 1009.0 | |
| 20260505065016 | 67 | 0.0 | 0.0 | 0.00 | 0.00 | 0.00 | 44 | 1009.0 | |
| 20260505064101 | 67 | 0.0 | 0.0 | 0.00 | 0.00 | 0.00 | 44 | 1009.0 | |
| 20260505063024 | 67 | 0.0 | 0.0 | 0.00 | 0.00 | 0.00 | 44 | 1009.0 | |
| 20260505062025 | 66 | 23 | 0.9 | 0.9 | 0.00 | 0.00 | 0.00 | 44 | 1009.0 |
| 20260505061033 | 66 | 0.0 | 0.0 | 0.00 | 0.00 | 0.00 | 45 | 1009.0 | |
| 20260505060023 | 65 | 0.0 | 0.0 | 0.00 | 0.00 | 0.00 | 45 | 1009.0 | |
| 20260505055020 | 65 | 0.0 | 0.0 | 0.00 | 0.00 | 0.00 | 45 | 1009.0 | |
| 20260505054046 | 64 | 0.0 | 0.0 | 0.00 | 0.00 | 0.00 | 45 | 1009.0 | |
| 20260505053029 | 64 | 23 | 0.0 | 1.7 | 0.00 | 0.00 | 0.00 | 46 | 1009.0 |
| 20260505052020 | 63 | 0.0 | 0.0 | 0.00 | 0.00 | 0.00 | 46 | 1009.0 | |
| 20260505051045 | 63 | 0.0 | 0.0 | 0.00 | 0.00 | 0.00 | 46 | 1009.0 | |
| 20260505041040 | 61 | 0.0 | 0.0 | 0.00 | 0.00 | 0.00 | 45 | 1010.0 | |
| 20260505040036 | 61 | 0.0 | 0.0 | 0.00 | 0.00 | 0.00 | 45 | 1010.0 | |
| 20260505035018 | 61 | 0.0 | 0.0 | 0.00 | 0.00 | 0.00 | 45 | 1010.0 | |
| 20260505034028 | 60 | 0.0 | 0.0 | 0.00 | 0.00 | 0.00 | 45 | 1010.0 | |
| 20260505033016 | 60 | 0.0 | 0.0 | 0.00 | 0.00 | 0.00 | 45 | 1010.0 | |
| 20260505032037 | 60 | 0.0 | 0.0 | 0.00 | 0.00 | 0.00 | 44 | 1010.0 | |
| 20260505031045 | 60 | 0.0 | 0.0 | 0.00 | 0.00 | 0.00 | 44 | 1010.0 | |
| 20260505030019 | 61 | 0.0 | 0.0 | 0.00 | 0.00 | 0.00 | 44 | 1010.0 | |
| 20260505025027 | 61 | 0.0 | 0.0 | 0.00 | 0.00 | 0.00 | 44 | 1010.0 | |
| 20260505024136 | 61 | 0.0 | 0.0 | 0.00 | 0.00 | 0.00 | 43 | 1010.0 | |
| 20260505023050 | 61 | 0.0 | 0.0 | 0.00 | 0.00 | 0.00 | 44 | 1010.0 | |
| 20260505022053 | 61 | 0.0 | 0.0 | 0.00 | 0.00 | 0.00 | 43 | 1010.0 | |
| 20260505021018 | 61 | 0.0 | 0.0 | 0.00 | 0.00 | 0.00 | 42 | 1010.0 | |
| 20260505020044 | 62 | 0.0 | 0.0 | 0.00 | 0.00 | 0.00 | 42 | 1010.0 | |
| 20260505015041 | 62 | 0.0 | 0.0 | 0.00 | 0.00 | 0.00 | 41 | 1010.0 | |
| 20260505014025 | 62 | 0.0 | 0.0 | 0.00 | 0.00 | 0.00 | 41 | 1010.0 | |
| 20260505013017 | 62 | 0.0 | 0.0 | 0.00 | 0.00 | 0.00 | 40 | 1010.0 | |
| 20260505012034 | 62 | 0.0 | 0.0 | 0.00 | 0.00 | 0.00 | 40 | 1010.0 | |
| 20260505011031 | 63 | 0.0 | 0.0 | 0.00 | 0.00 | 0.00 | 39 | 1010.0 | |
| 20260505010046 | 63 | 0.0 | 0.0 | 0.00 | 0.00 | 0.00 | 39 | 1010.0 | |
| 20260505005049 | 63 | 0.0 | 0.0 | 0.00 | 0.00 | 0.00 | 38 | 1010.0 | |
| 20260505004025 | 63 | 0.0 | 0.0 | 0.00 | 0.00 | 0.00 | 38 | 1010.0 | |
| 20260505003025 | 63 | 0.0 | 0.0 | 0.00 | 0.00 | 0.00 | 38 | 1010.0 | |
| 20260505002022 | 63 | 23 | 0.0 | 0.9 | 0.00 | 0.00 | 0.00 | 37 | 1010.0 |
| 20260505001035 | 63 | 0.0 | 0.0 | 0.00 | 0.00 | 0.00 | 37 | 1010.0 | |
| 20260505000037 | 63 | 0.0 | 0.0 | 0.00 | 0.00 | 0.00 | 37 | 1010.0 | |
| 20260504235039 | 64 | 0.0 | 0.0 | 0.00 | 0.00 | 0.00 | 36 | 1010.0 | |
| 20260504234033 | 64 | 0.0 | 0.0 | 0.00 | 0.00 | 0.00 | 36 | 1010.0 | |
| 20260504233017 | 64 | 0.0 | 0.0 | 0.00 | 0.00 | 0.00 | 36 | 1010.0 | |
| 20260504232025 | 65 | 0.0 | 0.0 | 0.00 | 0.00 | 0.00 | 35 | 1010.0 | |
| 20260504231022 | 65 | 0.0 | 0.0 | 0.00 | 0.00 | 0.00 | 34 | 1010.0 | |
| 20260504230028 | 65 | 0.0 | 0.0 | 0.00 | 0.00 | 0.00 | 34 | 1010.0 | |
| 20260504225033 | 66 | 0.0 | 0.0 | 0.00 | 0.00 | 0.00 | 34 | 1010.0 | |
| 20260504224017 | 66 | 0.0 | 0.0 | 0.00 | 0.00 | 0.00 | 33 | 1010.0 | |
| 20260504223104 | 66 | 0.0 | 0.0 | 0.00 | 0.00 | 0.00 | 33 | 1010.0 | |
| 20260504222031 | 67 | 0.0 | 0.0 | 0.00 | 0.00 | 0.00 | 33 | 1010.0 | |
| 20260504221020 | 67 | 0.0 | 0.0 | 0.00 | 0.00 | 0.00 | 33 | 1010.0 | |
| 20260504220045 | 67 | 0.0 | 0.0 | 0.00 | 0.00 | 0.00 | 32 | 1010.0 | |
| 20260504215045 | 67 | 0.0 | 0.0 | 0.00 | 0.00 | 0.00 | 31 | 1010.0 |